Date String (YYYY-MM-DD hh:mm:ss) UTC,Instrument flags,Ambient pressure (hPa),Sample flow (lpm),Bypass flow (lpm),Sample temperature (°C),Ambient temperature (°C),ASC tube jacket temperature (°C),LED temperature (°C),Box temperature (°C),Sample RH (%),Span deviation,Mass concentration (μg/m³),Mass concentration (μg/m³),Mass concentration (μg/m³)
DateTimeUTC,F1_M11,P_M11,Q1_M11,Q2_M11,T1_M11,T2_M11,T3_M11,T4_M11,T5_M11,U1_M11,ZSPAN_M11,X0_M11,X2_M11,X1_M11
2022-06-29 04:00:00,,0829.4,5.00,0.00,29.2,27.6,00.0,37.9,31.1,15.0,0000.0,0010.67,0004.10,0003.61
2022-06-29 04:01:00,,0829.5,5.00,0.00,29.2,27.3,00.0,37.8,31.0,15.1,0000.0,0010.65,0004.11,0003.61
2022-06-29 04:02:00,,0829.5,5.01,0.00,29.1,27.3,00.0,37.9,31.0,15.1,0000.0,0011.02,0004.12,0003.63
2022-06-29 04:03:00,,0829.5,5.00,0.00,29.1,27.4,00.0,37.9,31.0,15.2,0000.0,0010.44,0004.13,0003.64
2022-06-29 04:04:00,,0829.6,5.00,0.00,29.1,27.5,00.0,37.9,31.0,15.3,0000.0,0009.46,0004.17,0003.65
2022-06-29 04:05:00,,0829.5,5.00,0.00,29.1,27.7,00.0,37.9,31.0,15.3,0000.0,0009.91,0004.18,0003.66
2022-06-29 04:06:00,,0829.5,5.00,0.00,29.2,27.8,00.0,37.9,31.1,15.2,0000.0,0009.51,0004.18,0003.67
2022-06-29 04:07:00,,0829.6,5.01,0.00,29.2,28.0,00.0,37.9,31.1,15.3,0000.0,0009.35,0004.16,0003.67
2022-06-29 04:08:00,,0829.6,4.98,0.00,29.2,28.1,00.0,37.9,31.2,15.2,0000.0,0009.36,0004.17,0003.69
2022-06-29 04:09:00,,0829.6,5.01,0.00,29.2,28.2,00.0,37.9,31.2,15.2,0000.0,0009.44,0004.20,0003.70
2022-06-29 04:10:00,,0829.8,4.99,0.00,29.3,28.3,00.0,38.0,31.3,15.3,0000.0,0009.45,0004.21,0003.71
2022-06-29 04:11:00,,0829.7,5.00,0.00,29.3,28.4,00.0,38.0,31.3,15.3,0000.0,0009.49,0004.22,0003.73
2022-06-29 04:12:00,,0829.6,5.01,0.00,29.3,28.1,00.0,38.0,31.3,15.4,0000.0,0009.54,0004.25,0003.74
2022-06-29 04:13:00,,0829.7,5.00,0.00,29.3,27.5,00.0,37.9,31.1,15.5,0000.0,0008.73,0004.23,0003.74
2022-06-29 04:14:00,,0829.7,5.00,0.00,29.2,27.3,00.0,37.9,31.0,15.4,0000.0,0009.22,0004.25,0003.74
2022-06-29 04:15:00,,0829.9,4.99,0.00,29.2,27.3,00.0,37.9,31.0,15.2,0000.0,0009.28,0004.24,0003.75
2022-06-29 04:16:00,,0829.6,5.00,0.00,29.2,27.4,00.0,37.9,31.0,15.1,0000.0,0008.61,0004.25,0003.75
2022-06-29 04:17:00,,0829.8,5.01,0.00,29.2,27.6,00.0,37.9,31.0,15.0,0000.0,0008.66,0004.28,0003.75
2022-06-29 04:18:00,,0829.6,5.01,0.00,29.2,27.7,00.0,37.9,31.1,15.5,0000.0,0008.75,0004.27,0003.75
2022-06-29 04:19:00,,0829.7,4.99,0.00,29.2,27.9,00.0,37.9,31.1,15.6,0000.0,0008.70,0004.26,0003.75
2022-06-29 04:20:00,,0829.7,4.99,0.00,29.2,28.0,00.0,38.0,31.2,15.0,0000.0,0008.60,0004.25,0003.76
2022-06-29 04:21:00,,0829.6,5.00,0.00,29.3,28.2,00.0,38.0,31.2,14.8,0000.0,0008.61,0004.26,0003.75
2022-06-29 04:22:00,,0829.6,5.01,0.00,29.3,28.3,00.0,38.0,31.3,14.7,0000.0,0008.63,0004.26,0003.75
2022-06-29 04:23:00,,0829.6,5.01,0.00,29.3,28.4,00.0,38.0,31.3,14.7,0000.0,0008.70,0004.27,0003.75
2022-06-29 04:24:00,,0829.6,5.00,0.00,29.3,28.3,00.0,38.0,31.3,14.9,0000.0,0009.01,0004.29,0003.76
2022-06-29 04:25:00,,0829.6,5.00,0.00,29.3,27.5,00.0,38.0,31.1,15.2,0000.0,0008.69,0004.28,0003.75
2022-06-29 04:26:00,,0829.7,5.00,0.00,29.3,27.3,00.0,38.0,31.0,15.3,0000.0,0008.72,0004.25,0003.75
2022-06-29 04:27:00,,0829.7,5.00,0.00,29.2,27.3,00.0,38.0,31.0,15.5,0000.0,0008.73,0004.22,0003.75
2022-06-29 04:28:00,,0829.6,5.01,0.00,29.2,27.4,00.0,38.0,31.0,15.6,0000.0,0008.67,0004.22,0003.75
2022-06-29 04:29:00,,0829.7,5.00,0.00,29.2,27.5,00.0,38.0,31.0,15.7,0000.0,0008.53,0004.20,0003.75
2022-06-29 04:30:00,,0829.6,4.99,0.00,29.2,27.7,00.0,38.0,31.1,15.6,0000.0,0008.60,0004.22,0003.74
2022-06-29 04:31:00,,0829.7,5.00,0.00,29.2,27.8,00.0,38.0,31.1,15.6,0000.0,0008.82,0004.23,0003.73
2022-06-29 04:32:00,,0829.6,4.99,0.00,29.2,28.0,00.0,38.0,31.2,15.5,0000.0,0009.15,0004.23,0003.72
2022-06-29 04:33:00,,0829.6,5.02,0.00,29.3,28.1,00.0,38.0,31.2,15.5,0000.0,0009.69,0004.23,0003.72
2022-06-29 04:34:00,,0829.7,5.00,0.00,29.3,28.2,00.0,38.0,31.3,15.5,0000.0,0009.87,0004.23,0003.72
2022-06-29 04:35:00,,0829.7,4.98,0.00,29.3,28.3,00.0,38.0,31.3,15.6,0000.0,0009.89,0004.24,0003.72
2022-06-29 04:36:00,,0829.6,4.98,0.00,29.4,28.4,00.0,38.0,31.3,15.6,0000.0,0009.56,0004.23,0003.73
2022-06-29 04:37:00,,0829.6,5.01,0.00,29.3,27.8,00.0,38.0,31.2,15.7,0000.0,0009.52,0004.26,0003.74
2022-06-29 04:38:00,,0829.7,5.01,0.00,29.3,27.4,00.0,38.0,31.1,15.8,0000.0,0009.33,0004.30,0003.75
2022-06-29 04:39:00,,0829.7,5.01,0.00,29.3,27.3,00.0,38.0,31.0,15.9,0000.0,0009.28,0004.31,0003.75
2022-06-29 04:40:00,,0829.6,4.99,0.00,29.2,27.4,00.0,38.0,31.0,16.0,0000.0,0009.44,0004.37,0003.77
2022-06-29 04:41:00,,0829.7,5.00,0.00,29.2,27.5,00.0,38.0,31.0,16.0,0000.0,0009.52,0004.43,0003.79
2022-06-29 04:42:00,,0829.6,4.99,0.00,29.2,27.7,00.0,38.0,31.1,16.1,0000.0,0009.42,0004.45,0003.81
2022-06-29 04:43:00,,0829.7,5.00,0.00,29.2,27.8,00.0,38.0,31.1,16.1,0000.0,0009.79,0004.44,0003.83
2022-06-29 04:44:00,,0829.6,5.00,0.00,29.2,28.0,00.0,38.0,31.2,16.1,0000.0,0009.94,0004.44,0003.85
2022-06-29 04:45:00,,0829.6,4.99,0.00,29.3,28.1,00.0,38.0,31.2,16.1,0000.0,0009.81,0004.44,0003.85
2022-06-29 04:46:00,,0829.7,5.00,0.00,29.3,28.2,00.0,38.0,31.3,16.0,0000.0,0009.56,0004.42,0003.85
2022-06-29 04:47:00,,0829.8,5.01,0.00,29.3,28.3,00.0,38.0,31.3,15.9,0000.0,0009.60,0004.42,0003.85
2022-06-29 04:48:00,,0829.8,4.99,0.00,29.4,28.4,00.0,38.1,31.3,15.9,0000.0,0009.61,0004.41,0003.85
2022-06-29 04:49:00,,0829.6,5.01,0.00,29.4,28.5,00.0,38.1,31.4,15.9,0000.0,0010.09,0004.38,0003.85
2022-06-29 04:50:00,,0829.7,5.01,0.00,29.4,28.1,00.0,38.1,31.3,15.8,0000.0,0010.29,0004.34,0003.85
2022-06-29 04:51:00,,0829.6,5.00,0.00,29.3,27.2,00.0,38.0,31.0,15.9,0000.0,0010.47,0004.29,0003.84
2022-06-29 04:52:00,,0829.5,5.00,0.00,29.3,26.8,00.0,38.0,30.9,15.9,0000.0,0010.90,0004.20,0003.81
2022-06-29 04:53:00,,0829.5,4.99,0.00,29.2,26.8,00.0,38.0,30.8,15.9,0000.0,0010.84,0004.19,0003.81
2022-06-29 04:54:00,,0829.5,5.00,0.00,29.1,26.9,00.0,37.9,30.9,16.0,0000.0,0010.26,0004.20,0003.80
2022-06-29 04:55:00,,0829.5,4.99,0.00,29.1,27.1,00.0,37.9,30.9,16.2,0000.0,0009.32,0004.18,0003.79
2022-06-29 04:56:00,,0829.5,5.00,0.00,29.1,27.3,00.0,37.9,30.9,16.2,0000.0,0009.27,0004.15,0003.77
2022-06-29 04:57:00,,0829.5,5.01,0.00,29.1,27.5,00.0,37.9,31.0,16.2,0000.0,0009.54,0004.19,0003.77
2022-06-29 04:58:00,,0829.6,4.99,0.00,29.1,27.6,00.0,37.9,31.0,16.1,0000.0,0009.50,0004.20,0003.76
2022-06-29 04:59:00,,0829.5,5.00,0.00,29.1,27.8,00.0,37.9,31.1,16.1,0000.0,0009.37,0004.20,0003.76
